Location: Taukkyan
(23.1052°N, 94.0030°E)
Time: 11:57:03
(UTC+00:00)

Meteor 2-16 Rocket - Pass Details

Date: 06 July 2020
Orbit: 942 x 955 km, 82.6° (Epoch: 15 August)

Event Time Altitude Azimuth Distance (km) Brightness Sun altitude
Rises 13:47:35 0° 184° (S) 3,598 7.2 -15.6°
Reaches altitude 10° 13:50:03 10° 185° (S) 2,654 6.5 -16.1°
Maximum altitude 13:56:08 88° 275° (W) 947 4.4 -17.3°
Drops below altitude 10° 14:02:13 10° 4° (N) 2,658 7.2 -18.4°
Sets 14:04:42 0° 5° (N) 3,605 7.9 -18.9°
